[[{"header":{"parameterUnit":"m.s-1","parameterCategory":1,"la1":30.2991,"la2":30.254,"lo1":-89.0895,"lo2":-89.0444,"dy":0.0017,"dx":0.0017,"nx":28,"ny":28,"refTime":"2023-09-03T09:00:00:Z","depth":0,"parameterNumber":2,"parameterNumberName":"U-component_of_WINDS"},"data":[0,0,0,0,0,0,0,0,0,0,0,0,0,0,0,0,0,0,0,0,0,0,0,0,0,0,0,0,0,0,0,0,0,0,0,0,0,0,0,0,0,0,0,0,0,0,0,0,0,0,0,0,0,0,0,0,0,0,-4.3519,-4.3521,0,-4.3695,-4.3697,-4.3699,-4.3697,-4.3695,-4.3693,-4.369,-4.3877,-4.3884,-4.3891,0,0,0,0,0,0,0,0,0,0,0,0,0,-4.319,-4.3196,-4.3519,-4.3521,-4.3524,-4.3695,-4.3697,-4.37,-4.3698,-4.3695,-4.3692,-4.3689,-4.3875,-4.3883,-4.3892,0,0,0,0,0,0,0,0,0,0,0,0,0,-4.3346,-4.3198,-4.3519,-4.3543,-4.3547,-4.3694,-4.3697,-4.37,-4.3698,-4.3695,-4.3691,-4.3688,-4.3872,-4.3882,-4.3893,-4.4029,0,0,-4.3925,-4.393,0,0,0,0,0,0,0,0,-4.3337,-4.3358,-4.3537,-4.3542,-4.3546,-4.367,-4.3649,-4.3811,-4.3699,-4.3641,-4.369,-4.3686,-4.3812,-4.3827,-4.3868,-4.4038,-4.4046,-4.3926,-4.3933,-4.3938,-4.3941,0,0,0,0,0,0,0,-4.3327,-4.3351,-4.3589,-4.354,-4.3546,-4.3548,-4.3566,-4.368,-4.3744,-4.3646,-4.3646,-4.3667,-4.3813,-4.3857,-4.3872,-4.4049,-4.3926,-4.3936,-4.3942,-4.3946,-4.4343,-4.4347,0,0,0,0,0,0,-4.331,-4.3342,-4.3583,-4.3594,-4.3431,-4.3557,-4.3577,-4.3634,-4.3743,-4.3756,-4.3669,-4.3666,-4.3841,-4.386,-4.3879,-4.4047,-4.3937,-4.3947,-4.3954,-4.4339,-4.4344,-4.4348,0,0,0,0,0,0,-4.3303,-4.3331,-4.3576,-4.3468,-4.35,-4.3566,-4.363,-4.364,-4.3684,-4.376,-4.3773,-4.3702,-4.3839,-4.3864,-4.3992,-4.4054,-4.3952,-4.3962,-4.4334,-4.434,-4.4346,-4.4384,0,0,0,0,0,0,-4.3293,-4.3329,-4.3379,-4.3469,-4.3505,-4.3684,-4.3634,-4.3646,-4.3701,-4.3698,-4.3794,-4.3807,-4.3838,-4.3976,-4.4003,-4.4067,-4.397,-4.4329,-4.4337,-4.4344,-4.4378,-4.4391,-4.4402,0,0,0,0,0,-4.3281,-4.3384,-4.3382,-4.3411,-4.3569,-4.3688,-4.3709,-4.374,-4.3706,-4.3759,-4.3809,-4.3804,-4.4043,-4.3989,-4.4019,-4.4087,-4.4325,-4.4335,-4.4343,-4.4372,-4.4388,-4.4402,0,0,0,0,0,0,-4.3301,-4.3396,-4.3395,-4.3529,-4.36,-4.3687,-4.3754,-4.3756,-4.384,-4.3834,-4.3871,-4.3893,-4.4022,-4.4068,-4.4006,-4.4227,-4.418,-4.4196,-4.4192,-4.4208,-4.422,-4.4206,-4.3979,0,0,0,0,0,-4.332,-4.3406,-4.3486,-4.3596,-4.3632,-4.3687,-4.374,-4.3758,-4.3834,-4.3865,-4.3924,-4.4,-4.4093,-4.4153,-4.4242,-4.4385,-4.4407,-4.4447,-4.4459,-4.4468,-4.4482,-4.4563,-4.4583,-4.4379,-4.4378,-4.4378,0,0,-4.3362,-4.3425,-4.3477,-4.3602,-4.3659,-4.375,-4.3713,-4.3809,-4.3878,-4.3881,-4.4005,-4.4051,-4.4139,-4.4276,-4.4339,-4.4318,-4.4543,-4.448,-4.4487,-4.4496,-4.4575,-4.4594,-4.4611,-4.4385,-4.4384,-4.4383,0,0,-4.3485,-4.354,-4.3639,-4.3697,-4.3784,-4.382,-4.3844,-4.3932,-4.3963,-4.4088,-4.4092,-4.4176,-4.4333,-4.4396,-4.4449,-4.4598,-4.4598,-4.4626,-4.469,-4.4769,-4.4785,-4.48,-4.4855,-4.4874,-4.4639,-4.4639,-4.464,0,-4.3526,-4.366,-4.369,-4.3788,-4.3844,-4.3849,-4.3952,-4.4008,-4.412,-4.416,-4.4134,-4.4334,-4.4393,-4.4546,-4.4582,-4.4624,-4.4655,-4.4615,-4.478,-4.4795,-4.4809,-4.4862,-4.4882,-4.4642,-4.4642,-4.4642,-4.4641,0,-4.3708,-4.3802,-4.3872,-4.3979,-4.4043,-4.4142,-4.419,-4.4252,-4.4266,-4.4306,-4.4435,-4.4507,-4.4611,-4.4649,-4.4663,-4.4805,-4.4789,-4.4772,-4.4726,-4.4831,-4.4882,-4.4902,-4.4647,-4.4646,-4.4645,-4.4644,0,0,-4.3846,-4.3969,-4.3995,-4.4044,-4.4142,-4.4216,-4.4318,-4.4418,-4.4472,-4.455,-4.4638,-4.4772,-4.4757,-4.4817,-4.4839,-4.4908,-4.5024,-4.4883,-4.4885,-4.4908,-4.5187,-4.52,-4.5223,-4.5025,-4.5029,-4.5032,-4.518,0,-4.398,-4.4157,-4.4188,-4.4345,-4.4433,-4.4441,-4.453,-4.4601,-4.4641,-4.4725,-4.4771,-4.4866,-4.4838,-4.4874,-4.4943,-4.4995,-4.5081,-4.4985,-4.5109,-4.5113,-4.5087,-4.5249,-4.5263,-4.5399,-4.52,-4.5203,-4.5206,0,-4.4159,-4.424,-4.4405,-4.4492,-4.4531,-4.461,-4.4706,-4.4784,-4.4866,-4.4892,-4.4959,-4.4974,-4.5083,-4.5032,-4.5184,-4.5118,-4.5171,-4.5205,-4.5211,-4.5225,-4.5166,-4.5268,-4.5443,-4.5464,-4.5237,-4.5235,-4.5232,0,-4.4245,-4.4396,-4.4514,-4.4556,-4.4661,-4.4717,-4.4764,-4.4842,-4.4902,-4.4987,-4.5026,-4.5124,-4.5177,-4.5254,-4.5296,-4.5254,-4.5446,-4.5398,-4.5472,-4.5471,-4.5512,-4.5509,-4.5699,-4.5545,-4.5545,-4.5544,-4.5544,0,-4.4391,-4.4491,-4.4554,-4.4627,-4.4742,-4.4778,-4.4891,-4.4938,-4.5008,-4.5092,-4.5106,-4.5185,-4.5235,-4.5323,-4.5357,-4.5479,-4.5503,-4.5529,-4.5537,-4.5528,-4.5525,-4.5563,-4.5555,-4.555,-4.5549,-4.5548,-4.5547,0,-4.4505,-4.4551,-4.4681,-4.477,-4.4795,-4.4875,-4.4953,-4.5026,-4.5067,-4.5174,-4.5201,-4.5267,-4.5371,-4.5421,-4.555,-4.5573,-4.5713,-4.5714,-4.5684,-4.5687,-4.5759,-4.5752,-4.5982,-4.6015,-4.5837,-4.5839,-4.584,0,-4.4595,-4.4673,-4.477,-4.4827,-4.4874,-4.4966,-4.5026,-4.5066,-4.513,-4.523,-4.5292,-4.5396,-4.5482,-4.5649,-4.571,-4.581,-4.5814,-4.5888,-4.5829,-4.5819,-4.5817,-4.5812,-4.5821,-4.5898,-4.59,-4.5902,-4.5903,0,-4.4751,-4.4771,-4.4856,-4.4951,-4.5022,-4.5099,-4.5175,-4.5221,-4.5274,-4.5345,-4.5451,-4.5517,-4.5649,-4.5754,-4.5859,-4.591,-4.5917,-4.5921,-4.5944,-4.5936,-4.5916,-4.5929,-4.5714,-4.5915,-4.5914,-4.5913,-4.5912,-4.5912,-4.4857,-4.4927,-4.5007,-4.5103,-4.5164,-4.5235,-4.5308,-4.5359,-4.5447,-4.5556,-4.5576,-4.5689,-4.5773,-4.5914,-4.5969,-4.606,-4.6043,-4.6076,-4.6084,-4.6092,-4.6096,-4.59,-4.6079,-4.6079,-4.6079,-4.6078,-4.6078,0,-4.5015,-4.5067,-4.5154,-4.5259,-4.5336,-4.5334,-4.5418,-4.5483,-4.5581,-4.5658,-4.5742,-4.5865,-4.5967,-4.6037,-4.6141,-4.6201,-4.6207,-4.6228,-4.6224,-4.6236,-4.6105,-4.6075,-4.6221,-4.6221,-4.6221,-4.6221,-4.6221,-4.6221,-4.5105,-4.5224,-4.5254,-4.5405,-4.5457,-4.5566,-4.5615,-4.5682,-4.5743,-4.588,-4.5964,-4.6008,-4.6083,-4.6194,-4.6288,-4.6307,-4.6345,-4.6366,-4.6384,-4.626,-4.6245,-4.6231,-4.6203,-4.6374,-4.6374,-4.6508,-4.651,-4.651]},{"header":{"parameterUnit":"m.s-1","parameterCategory":1,"la1":30.2991,"la2":30.254,"lo1":-89.0895,"lo2":-89.0444,"dy":0.0017,"dx":0.0017,"nx":28,"ny":28,"refTime":"2023-09-03T09:00:00:Z","depth":0,"parameterNumber":3,"parameterNumberName":"V-component_of_WINDS"},"data":[0,0,0,0,0,0,0,0,0,0,0,0,0,0,0,0,0,0,0,0,0,0,0,0,0,0,0,0,0,0,0,0,0,0,0,0,0,0,0,0,0,0,0,0,0,0,0,0,0,0,0,0,0,0,0,0,0,0,-0.615,-0.6151,0,-0.6186,-0.6186,-0.6187,-0.6127,-0.6125,-0.6123,-0.6121,-0.6165,-0.6168,-0.6171,0,0,0,0,0,0,0,0,0,0,0,0,0,-0.6039,-0.6042,-0.615,-0.6151,-0.6151,-0.6186,-0.6186,-0.6187,-0.6127,-0.6125,-0.6122,-0.612,-0.6164,-0.6168,-0.6171,0,0,0,0,0,0,0,0,0,0,0,0,0,-0.6083,-0.6042,-0.615,-0.6125,-0.6124,-0.6186,-0.6186,-0.6187,-0.6128,-0.6125,-0.6122,-0.6119,-0.6163,-0.6167,-0.6172,-0.6262,0,0,-0.6186,-0.6188,0,0,0,0,0,0,0,0,-0.608,-0.6087,-0.6129,-0.6127,-0.6125,-0.6148,-0.6163,-0.6212,-0.6129,-0.6126,-0.6121,-0.6117,-0.6163,-0.6167,-0.6181,-0.6264,-0.6266,-0.6186,-0.6189,-0.6191,-0.6192,0,0,0,0,0,0,0,-0.6077,-0.6085,-0.6164,-0.6129,-0.6127,-0.6115,-0.6118,-0.6172,-0.6162,-0.6126,-0.6122,-0.6127,-0.6161,-0.6176,-0.6181,-0.6266,-0.6186,-0.619,-0.6193,-0.6195,-0.6429,-0.6432,0,0,0,0,0,0,-0.6076,-0.6083,-0.6163,-0.6165,-0.6094,-0.612,-0.6123,-0.6144,-0.6161,-0.616,-0.6129,-0.6124,-0.617,-0.6176,-0.6183,-0.6291,-0.6191,-0.6195,-0.6198,-0.6426,-0.643,-0.6434,0,0,0,0,0,0,-0.6074,-0.6084,-0.6162,-0.6123,-0.6132,-0.6125,-0.615,-0.6147,-0.6162,-0.6163,-0.6161,-0.6146,-0.6168,-0.6176,-0.6243,-0.6292,-0.6198,-0.6202,-0.6422,-0.6427,-0.6432,-0.6509,0,0,0,0,0,0,-0.6071,-0.6083,-0.6116,-0.6124,-0.6134,-0.6219,-0.6152,-0.615,-0.6169,-0.6162,-0.6178,-0.6178,-0.6166,-0.6236,-0.6247,-0.6297,-0.6205,-0.6417,-0.6424,-0.643,-0.6502,-0.6516,-0.6528,0,0,0,0,0,-0.6067,-0.6137,-0.6118,-0.6128,-0.6174,-0.6222,-0.6228,-0.621,-0.6173,-0.6207,-0.6208,-0.6178,-0.6284,-0.6244,-0.6256,-0.6307,-0.6414,-0.6422,-0.643,-0.6496,-0.6513,-0.6528,0,0,0,0,0,0,-0.6137,-0.6138,-0.6116,-0.619,-0.6206,-0.6212,-0.6254,-0.6229,-0.6258,-0.6251,-0.6229,-0.6234,-0.6306,-0.6313,-0.6267,-0.6397,-0.6343,-0.6354,-0.639,-0.6406,-0.6419,-0.6417,-0.6209,0,0,0,0,0,-0.616,-0.6197,-0.6196,-0.6262,-0.6271,-0.6261,-0.6281,-0.6266,-0.6283,-0.6291,-0.6296,-0.6316,-0.6355,-0.638,-0.6415,-0.6502,-0.6507,-0.6544,-0.6557,-0.6567,-0.6578,-0.6627,-0.6645,-0.6459,-0.6459,-0.6459,0,0,-0.621,-0.6215,-0.624,-0.6276,-0.6287,-0.6328,-0.6267,-0.6313,-0.6345,-0.6298,-0.6362,-0.6367,-0.6388,-0.6466,-0.65,-0.6474,-0.663,-0.6577,-0.6586,-0.659,-0.6637,-0.6655,-0.667,-0.6464,-0.6463,-0.6462,0,0,-0.6322,-0.6328,-0.6384,-0.6396,-0.6413,-0.6406,-0.6419,-0.6429,-0.643,-0.6493,-0.646,-0.6498,-0.6564,-0.6581,-0.6598,-0.6719,-0.6693,-0.6731,-0.68,-0.6849,-0.6863,-0.6876,-0.6922,-0.6939,-0.674,-0.6741,-0.6741,0,-0.6382,-0.6441,-0.6417,-0.6465,-0.6484,-0.6441,-0.65,-0.6514,-0.6542,-0.6557,-0.6526,-0.6609,-0.662,-0.6703,-0.6732,-0.6746,-0.6764,-0.673,-0.6862,-0.6875,-0.6887,-0.6931,-0.6948,-0.6745,-0.6745,-0.6744,-0.6744,0,-0.6516,-0.6557,-0.6601,-0.6628,-0.6651,-0.6704,-0.6692,-0.6718,-0.6702,-0.6699,-0.6766,-0.6777,-0.6815,-0.6833,-0.6818,-0.6915,-0.6898,-0.6865,-0.6812,-0.691,-0.6951,-0.6967,-0.6752,-0.675,-0.6749,-0.6748,0,0,-0.6673,-0.6686,-0.6703,-0.6716,-0.6731,-0.6764,-0.6817,-0.6852,-0.6877,-0.6898,-0.6945,-0.7001,-0.6971,-0.6991,-0.6977,-0.702,-0.7118,-0.6982,-0.6982,-0.7009,-0.723,-0.7257,-0.7276,-0.71,-0.7103,-0.7106,-0.7229,0,-0.6787,-0.6876,-0.6857,-0.6945,-0.6985,-0.6946,-0.6993,-0.7009,-0.7009,-0.7045,-0.7045,-0.7087,-0.7042,-0.7054,-0.7094,-0.7098,-0.7163,-0.7088,-0.7147,-0.7149,-0.7145,-0.7297,-0.7325,-0.7441,-0.7245,-0.7247,-0.7249,0,-0.6931,-0.6957,-0.7049,-0.706,-0.7076,-0.7118,-0.715,-0.7183,-0.7203,-0.7199,-0.7222,-0.7201,-0.7257,-0.7201,-0.728,-0.723,-0.7253,-0.7258,-0.7262,-0.727,-0.7207,-0.7311,-0.7477,-0.7496,-0.7274,-0.7272,-0.727,0,-0.7041,-0.7098,-0.7161,-0.7173,-0.7186,-0.7217,-0.7225,-0.7241,-0.7264,-0.7292,-0.7308,-0.7343,-0.7364,-0.7393,-0.7383,-0.7343,-0.7466,-0.7408,-0.7468,-0.7469,-0.7498,-0.7497,-0.7673,-0.7508,-0.7508,-0.7508,-0.7507,0,-0.7171,-0.723,-0.721,-0.725,-0.7316,-0.7294,-0.7361,-0.7364,-0.7379,-0.7421,-0.7389,-0.743,-0.7412,-0.7453,-0.7446,-0.7515,-0.7523,-0.7525,-0.7523,-0.753,-0.753,-0.7546,-0.7539,-0.7512,-0.7511,-0.751,-0.751,0,-0.7305,-0.7294,-0.7361,-0.7368,-0.7372,-0.742,-0.7428,-0.7467,-0.7463,-0.7517,-0.7528,-0.7525,-0.757,-0.7563,-0.7614,-0.7609,-0.7696,-0.7683,-0.769,-0.7688,-0.7749,-0.7745,-0.7944,-0.7971,-0.7786,-0.7788,-0.779,0,-0.739,-0.7435,-0.7447,-0.7471,-0.7481,-0.7521,-0.7544,-0.7525,-0.7551,-0.7577,-0.7614,-0.7656,-0.7689,-0.7765,-0.7769,-0.7809,-0.7799,-0.7866,-0.7805,-0.7811,-0.7804,-0.7802,-0.7808,-0.7879,-0.7881,-0.7883,-0.7884,0,-0.7544,-0.7536,-0.7569,-0.7602,-0.763,-0.7655,-0.7677,-0.7699,-0.7683,-0.7714,-0.776,-0.7786,-0.7838,-0.7882,-0.792,-0.7931,-0.7907,-0.7903,-0.792,-0.7928,-0.7931,-0.7934,-0.7726,-0.7899,-0.7898,-0.7897,-0.7896,-0.7895,-0.7658,-0.7697,-0.7712,-0.7751,-0.7765,-0.7787,-0.7824,-0.7825,-0.7862,-0.7901,-0.7888,-0.7941,-0.7962,-0.801,-0.8025,-0.8069,-0.8044,-0.8067,-0.8074,-0.8081,-0.809,-0.7922,-0.8075,-0.8075,-0.8074,-0.8074,-0.8073,0,-0.7813,-0.782,-0.7856,-0.7887,-0.7919,-0.789,-0.7914,-0.7943,-0.7989,-0.8009,-0.8042,-0.8096,-0.8139,-0.8147,-0.8188,-0.8222,-0.8212,-0.8234,-0.8233,-0.8237,-0.8107,-0.809,-0.8241,-0.8241,-0.8241,-0.8241,-0.8241,-0.8241,-0.7897,-0.7961,-0.7956,-0.8029,-0.8036,-0.8086,-0.8103,-0.8124,-0.814,-0.8201,-0.8236,-0.8239,-0.8256,-0.8299,-0.8338,-0.8339,-0.8358,-0.8385,-0.8382,-0.8262,-0.8245,-0.823,-0.8213,-0.8388,-0.8388,-0.8508,-0.851,-0.851]}]]